Location: New Canada
(47.1017°N, 68.5042°W)
Time: 17:03:08
(UTC+00:00)

KKS-1 - Pass Details

Date: 02 May 2024
Orbit: 628 x 639 km, 98.1° (Epoch: 21 May)

Event Time Altitude Azimuth Distance (km) Brightness Sun altitude
Rises 05:19:58 0° 359° (N) 2,957 ? -26.4°
Reaches altitude 10° 05:22:53 10° 338° (NNW) 2,041 ? -26.3°
Maximum altitude 05:25:37 16° 300° (WNW) 1,654 ? -26.2°
Enters shadow 05:26:16 16° 289° (WNW) 1,678 ? -26.1°
